Date String (YYYY-MM-DD hh:mm:ss) UTC,Instrument flags,absolute air pressure of the measurement (hPa),sample flow rate (lpm),inlet stack bypass flow (lpm),air temperature of the measurement (°C),ambient temperature measured by the external sensor (°C),aerosol sample conditioner tube jacket temperature (°C),OPC LED temperature (°C),internal box temperature (°C),relative humidity of the measurement (%),span deviation,mass concentration of particles derived from Lorenz-Mie calculation of OPC scattering (μg/m³),mass concentration of particles derived from Lorenz-Mie calculation of OPC scattering (μg/m³),mass concentration of particles derived from Lorenz-Mie calculation of OPC scattering (μg/m³)
DateTimeUTC,F1_M11,P_M11,Q1_M11,Q2_M11,T1_M11,T2_M11,T3_M11,T4_M11,T5_M11,U1_M11,ZSPAN_M11,X2_M11,X0_M11,X1_M11
2023-06-01 18:00:00,SystemResetWarning,0825.9,5.00,000.00,030.1,028.7,000.0,038.5,031.7,29.6,0001.0,0006.88,0014.53,0005.66
2023-06-01 18:01:00,SystemResetWarning,0825.9,5.00,000.00,030.1,028.7,000.0,038.5,031.8,29.3,0001.1,0006.91,0014.22,0005.70
2023-06-01 18:02:00,SystemResetWarning,0825.9,5.00,000.00,030.1,028.8,000.0,038.5,031.8,29.8,0001.0,0007.01,0014.24,0005.77
2023-06-01 18:03:00,SystemResetWarning,0825.8,5.00,000.00,030.1,028.8,000.0,038.5,031.8,30.7,0001.7,0007.03,0014.03,0005.83
2023-06-01 18:04:00,SystemResetWarning,0825.9,5.00,000.00,030.2,028.8,000.0,038.5,031.8,30.8,0001.5,0007.02,0013.67,0005.87
2023-06-01 18:05:00,SystemResetWarning,0825.9,5.00,000.00,030.2,028.8,000.0,038.5,031.8,30.9,0001.4,0007.13,0013.39,0005.98
2023-06-01 18:06:00,SystemResetWarning,0825.9,4.99,000.00,030.2,028.8,000.0,038.5,031.8,30.6,0001.3,0007.24,0013.59,0006.12
2023-06-01 18:07:00,SystemResetWarning,0826.0,5.00,000.00,030.2,028.8,000.0,038.5,031.8,30.4,0001.2,0007.36,0013.22,0006.27
2023-06-01 18:08:00,SystemResetWarning,0825.9,5.00,000.00,030.2,028.8,000.0,038.6,031.9,30.5,0000.9,0007.53,0014.32,0006.44
2023-06-01 18:09:00,SystemResetWarning,0826.0,5.00,000.00,030.2,028.9,000.0,038.6,031.9,30.6,0001.1,0007.67,0014.44,0006.61
2023-06-01 18:10:00,SystemResetWarning,0826.0,5.00,000.00,030.2,028.9,000.0,038.6,031.9,30.7,0001.3,0007.80,0014.32,0006.77
2023-06-01 18:11:00,SystemResetWarning,0826.0,5.00,000.00,030.3,028.9,000.0,038.6,031.9,30.7,0001.5,0007.95,0014.40,0006.93
2023-06-01 18:12:00,SystemResetWarning,0826.0,5.00,000.00,030.3,029.0,000.0,038.6,031.9,31.2,0001.4,0008.08,0014.51,0007.07
2023-06-01 18:13:00,SystemResetWarning,0826.0,4.99,000.00,030.3,029.0,000.0,038.6,031.9,31.6,0001.4,0008.18,0014.55,0007.17
2023-06-01 18:14:00,SystemResetWarning,0826.0,5.00,000.00,030.3,029.0,000.0,038.6,031.9,31.0,0001.0,0008.31,0015.12,0007.29
2023-06-01 18:15:00,SystemResetWarning,0826.0,5.00,000.00,030.3,029.0,000.0,038.6,031.9,31.0,0000.9,0008.46,0015.83,0007.42
2023-06-01 18:16:00,SystemResetWarning,0826.0,5.00,000.00,030.3,029.0,000.0,038.7,032.0,30.8,0001.1,0008.57,0015.98,0007.51
2023-06-01 18:17:00,SystemResetWarning,0826.0,4.99,000.00,030.3,028.7,000.0,038.6,032.0,30.5,0001.0,0008.65,0016.09,0007.55
2023-06-01 18:18:00,SystemResetWarning,0826.0,4.99,000.00,030.3,027.2,000.0,038.6,031.7,30.5,0001.0,0008.69,0015.86,0007.59
2023-06-01 18:19:00,SystemResetWarning,0826.0,5.01,000.00,030.3,026.2,000.0,038.5,031.6,30.7,0001.2,0008.76,0015.69,0007.63
2023-06-01 18:20:00,SystemResetWarning,0826.0,5.01,000.00,030.2,026.2,000.0,038.5,031.5,30.8,0001.1,0008.82,0015.43,0007.64
2023-06-01 18:21:00,SystemResetWarning,0826.1,4.99,000.00,030.1,026.5,000.0,038.5,031.4,30.5,0001.3,0008.85,0015.80,0007.65
2023-06-01 18:22:00,SystemResetWarning,0826.0,5.00,000.00,030.1,026.8,000.0,038.5,031.4,31.3,0000.9,0008.86,0016.29,0007.66
2023-06-01 18:23:00,SystemResetWarning,0826.0,5.00,000.00,030.0,027.1,000.0,038.4,031.5,31.5,0000.9,0008.87,0016.26,0007.66
2023-06-01 18:24:00,SystemResetWarning,0826.0,5.01,000.00,030.0,027.4,000.0,038.4,031.5,31.4,0000.9,0008.88,0016.28,0007.69
2023-06-01 18:25:00,SystemResetWarning,0826.0,5.00,000.00,030.0,027.6,000.0,038.4,031.5,31.1,0001.2,0008.90,0016.01,0007.74
2023-06-01 18:26:00,SystemResetWarning,0826.0,4.99,000.00,030.0,027.9,000.0,038.4,031.6,31.4,0001.5,0008.94,0015.62,0007.76
2023-06-01 18:27:00,SystemResetWarning,0826.0,5.00,000.00,030.0,028.0,000.0,038.4,031.6,31.4,0001.5,0008.95,0015.54,0007.73
2023-06-01 18:28:00,SystemResetWarning,0826.0,5.00,000.00,030.0,028.2,000.0,038.4,031.6,31.7,0001.5,0009.00,0015.70,0007.76
2023-06-01 18:29:00,SystemResetWarning,0826.1,5.01,000.00,030.0,028.3,000.0,038.4,031.6,31.0,0001.6,0009.07,0015.71,0007.79
2023-06-01 18:30:00,SystemResetWarning,0826.2,5.01,000.00,030.1,028.4,000.0,038.4,031.7,31.3,0001.5,0009.06,0015.60,0007.82
2023-06-01 18:31:00,SystemResetWarning,0826.2,4.99,000.00,030.1,028.4,000.0,038.4,031.7,31.1,0001.6,0009.02,0015.52,0007.85
2023-06-01 18:32:00,SystemResetWarning,0826.1,4.99,000.00,030.1,028.5,000.0,038.4,031.7,31.1,0001.3,0009.07,0015.34,0007.93
2023-06-01 18:33:00,SystemResetWarning,0826.2,5.01,000.00,030.1,028.5,000.0,038.4,031.7,31.0,0001.5,0009.15,0014.86,0008.02
2023-06-01 18:34:00,SystemResetWarning,0826.1,5.00,000.00,030.1,028.6,000.0,038.4,031.7,30.9,0001.5,0009.26,0015.62,0008.12
2023-06-01 18:35:00,SystemResetWarning,0826.1,4.99,000.00,030.1,028.6,000.0,038.4,031.7,31.2,0001.3,0009.41,0016.08,0008.21
2023-06-01 18:36:00,SystemResetWarning,0826.0,4.99,000.00,030.1,028.6,000.0,038.5,031.7,31.1,0001.2,0009.43,0016.37,0008.23
2023-06-01 18:37:00,SystemResetWarning,0826.0,5.02,000.00,030.1,028.7,000.0,038.5,031.8,31.0,0001.3,0009.47,0016.41,0008.28
2023-06-01 18:38:00,SystemResetWarning,0826.0,5.01,000.00,030.2,028.7,000.0,038.5,031.7,30.8,0001.0,0009.48,0016.24,0008.33
2023-06-01 18:39:00,SystemResetWarning,0826.0,4.99,000.00,030.2,028.8,000.0,038.5,031.8,31.1,0001.2,0009.52,0016.31,0008.36
2023-06-01 18:40:00,SystemResetWarning,0826.1,4.99,000.00,030.2,028.8,000.0,038.5,031.8,31.1,0001.0,0009.56,0016.44,0008.40
2023-06-01 18:41:00,SystemResetWarning,0826.1,5.00,000.00,030.2,028.8,000.0,038.5,031.8,31.2,0000.9,0009.66,0016.49,0008.45
2023-06-01 18:42:00,SystemResetWarning,0826.1,5.00,000.00,030.2,028.8,000.0,038.5,031.9,31.0,0000.3,0009.80,0016.46,0008.52
2023-06-01 18:43:00,SystemResetWarning,0826.1,4.99,000.00,030.2,028.4,000.0,038.5,031.8,31.1,0000.2,0009.83,0016.95,0008.56
2023-06-01 18:44:00,SystemResetWarning,0826.0,5.00,000.00,030.2,026.7,000.0,038.4,031.6,31.5,0000.1,0009.82,0017.55,0008.55
2023-06-01 18:45:00,SystemResetWarning,0826.0,5.01,000.00,030.1,025.5,000.0,038.3,031.4,31.4,0000.1,0009.78,0017.66,0008.56
2023-06-01 18:46:00,SystemResetWarning,0826.1,5.01,000.00,030.0,025.4,000.0,038.3,031.3,31.5,0000.3,0009.72,0017.16,0008.57
2023-06-01 18:47:00,SystemResetWarning,0826.1,5.00,000.00,029.9,025.7,000.0,038.3,031.2,31.9,0000.2,0009.78,0017.66,0008.63
2023-06-01 18:48:00,SystemResetWarning,0826.0,5.00,000.00,029.8,026.0,000.0,038.3,031.2,32.3,0000.1,0009.80,0018.17,0008.64
2023-06-01 18:49:00,SystemResetWarning,0826.1,4.99,000.00,029.8,026.4,000.0,038.2,031.2,32.1,0000.1,0009.70,0018.06,0008.57
2023-06-01 18:50:00,SystemResetWarning,0826.2,5.00,000.00,029.8,026.8,000.0,038.2,031.2,30.6,0000.1,0009.54,0017.88,0008.44
2023-06-01 18:51:00,SystemResetWarning,0826.2,5.00,000.00,029.8,027.1,000.0,038.2,031.3,29.7,0000.0,0009.28,0017.29,0008.25
2023-06-01 18:52:00,SystemResetWarning,0826.2,4.99,000.00,029.7,027.3,000.0,038.2,031.3,30.0,0000.3,0008.99,0016.78,0008.00
2023-06-01 18:53:00,SystemResetWarning,0826.2,5.00,000.00,029.7,027.5,000.0,038.2,031.3,29.5,0000.7,0008.69,0016.28,0007.79
2023-06-01 18:54:00,SystemResetWarning,0826.2,4.99,000.00,029.7,027.7,000.0,038.2,031.3,29.6,0001.1,0008.41,0015.57,0007.55
2023-06-01 18:55:00,SystemResetWarning,0826.2,4.99,000.00,029.7,027.8,000.0,038.2,031.3,30.0,0001.4,0008.20,0015.00,0007.30
2023-06-01 18:56:00,SystemResetWarning,0826.2,5.00,000.00,029.8,028.0,000.0,038.2,031.4,29.4,0001.4,0008.06,0014.73,0007.09
2023-06-01 18:57:00,SystemResetWarning,0826.2,5.01,000.00,029.8,028.1,000.0,038.2,031.4,29.2,0001.3,0007.87,0014.38,0006.86
2023-06-01 18:58:00,SystemResetWarning,0826.2,5.00,000.00,029.8,028.1,000.0,038.2,031.4,29.3,0001.2,0007.61,0015.13,0006.60
2023-06-01 18:59:00,SystemResetWarning,0826.2,5.01,000.00,029.8,028.2,000.0,038.2,031.4,29.1,0001.3,0007.34,0014.25,0006.35
